Location: Unspecified
(0.0000°N, 0.0000°E)
Time: 07:48:00
(UTC+00:00)

Courier 1B - Pass Details

Date: 26 September 2023
Orbit: 962 x 1208 km, 28.3° (Epoch: 06 December)

Event Time Altitude Azimuth Distance (km) Brightness Sun altitude
Rises 20:22:28 0° 308° (NW) 3,975 11.3 -37.8°
Reaches altitude 10° 20:25:23 10° 312° (NW) 2,981 10.4 -38.5°
Enters shadow 20:28:49 29° 324° (NW) 1,896 9.1 -39.4°
Maximum altitude 20:32:32 56° 29° (NNE) 1,245 - -40.3°
Drops below altitude 10° 20:39:14 10° 107° (ESE) 2,806 - -42.0°
Sets 20:41:54 0° 111° (ESE) 3,727 - -42.6°
